{"data":{"norad_id":52502,"epoch":"2026-05-25T03:49:32.899584Z","epoch_age_seconds":54469,"freshness":"FRESH","line1":"1 52502U 22049BD  26145.15940856  .00000780  00000+0  67079-4 0  9994","line2":"2 52502  53.2143  55.8608 0001715  62.7244 297.3923 15.08839490224072","mean_motion":15.0883949,"eccentricity":0.0001715,"inclination_deg":53.2143,"raan_deg":55.8608,"arg_perigee_deg":62.7244,"mean_anomaly_deg":297.3923,"bstar":6.7079e-5,"rev_number":22407,"period_min":95.437586936434,"perigee_km":538.55853107646,"apogee_km":540.93136458457,"semimajor_km":6917.8819478305,"source":"CELESTRAK","updated_at":"2026-05-25T13:38:17.160427Z"}}